Location: *
(45.9500°N, 9.0833°E)
Time: 00:39:21
(UTC+00:00)

Tiros 1 despin weight - Pass Details

Date: 27 June 2021
Orbit: 593 x 642 km, 48.2° (Epoch: 02 August)

Event Time Altitude Azimuth Distance (km) Brightness Sun altitude
Rises 00:50:09 0° 187° (S) 2,850 - -18.2°
Reaches altitude 10° 00:53:51 10° 156° (SSE) 1,940 - -18.0°
Exits shadow 00:55:17 12° 137° (SE) 1,817 ? -17.9°
Maximum altitude 00:55:30 12° 134° (SE) 1,814 ? -17.9°
Drops below altitude 10° 00:57:09 10° 112° (ESE) 1,935 ? -17.8°
Sets 01:00:48 0° 81° (E) 2,834 ? -17.5°
